星链-36108(STARLINK-36108)

导读

STARLINK-36108是美国SpaceX公司星链(Starlink)星座中的一颗低轨通信卫星,于2025年12月2日发射。星链星座旨在构建全球卫星互联网,该卫星运行于近地轨道,作为天基移动基站,依托相控阵天线与星间链路技术,可为全球尤其是偏远地区提供高速低延迟宽带通信服务,进一步扩充星链星座的全球覆盖与通信容量。

Basic Information
目录编号:
66868
目录名称:
STARLINK-36108
国际标识:
2025-281W
轨道中心:
EARTH
卫星名称:
星链-36108
卫星全名:
星链-36108(STARLINK-36108)
卫星状态:
在轨 (已飞行276 天)
发射日期:
2025-12-02 UTC
国别 :
美国 (US)
星等 :
--
Orbit Information
数据来源 国际轨道数据
星历时间: 2026-09-04T03:30:29+0800
14小时前
查看轨道信息
半长轴: 6861.159km
偏心率: 0.0001856
轨道倾角: 43.003°
近地点辐角 269.604°
升交点赤经 57.829°
平近点角 90.460°
近地点: 481.748km
远地点: 484.296km
周期: 94.266分钟
每日圈数: 15.275893
Detailed Information
固有亮度:
5
最大亮度:
2.5
卫星平台:
Starlink V1.0
覆盖范围:
全球
运营商:
太空探索技术公司
运营商所在国:
美国
制造商(研发单位):
太空探索技术公司
制造商所在国:
美国
使用方式:
暂无
Satellite Introduction
Starlink 计划是 SpaceX 推出的全球卫星互联网项目,通过发射低轨道卫星,为全球尤其是偏远地区提供高速、低延迟的互联网服务。自 2019 年起,Starlink 已部署数千颗卫星,旨在缩小全球数字鸿沟,推动互联网普及。该项目还为军事、航空等行业提供通信支持,带来广泛经济效益。
2D Orbit Map
3D Orbit Map
Orbit Altitude Analysis Chart
Orbit Inclination Analysis Chart
Orbit Comprehensive Analysis Chart
View Comprehensive Chart
Conjunction Data List
Event ID Objects TCA Miss Dist (km) Collision Risk Probability Collision Risk Index (CRI) Action
CDM_260905-032406-660406-686821
2026-09-05T
03:24:20+0000
0.208 km
中距离
5.704386E-4 高风险 0.9
CDM_260905-102806-660406-686821
2026-09-05T
10:28:02+0000
0.784 km
远距离
3.305261E-5 中风险 0.65
CDM_260904-224405-809206-686821
2026-09-04T
22:44:36+0000
0.889 km
远距离
2.547861E-5 中风险 0.63
CDM_260905-120405-809206-686821
2026-09-05T
12:04:55+0000
0.956 km
远距离
1.986619E-5 中风险 0.61
CDM_260904-211005-809206-686821
2026-09-04T
21:10:27+0000
1.094 km
极远距离
1.247704E-5 中风险 0.57
CDM_260905-103005-809206-686821
2026-09-05T
10:30:45+0000
2.235 km
极远距离
1.472035E-6 低风险 0.38
CDM_260905-133905-809206-686821
2026-09-05T
13:39:04+0000
2.506 km
极远距离
1.185917E-6 低风险 0.36
CDM_260905-015006-660406-686821
2026-09-05T
01:50:11+0000
2.411 km
极远距离
1.116594E-6 低风险 0.36
CDM_260905-001805-809206-686821
2026-09-05T
00:18:45+0000
2.703 km
极远距离
1.054417E-6 低风险 0.35
CDM_260905-120206-660406-686821
2026-09-05T
12:02:11+0000
2.535 km
极远距离
1.024332E-6 低风险 0.35